Location: Chuathbaluk
(61.5726°N, 159.2454°W)
Time: 23:19:49
(UTC+00:00)

Vanguard 1 - Visible Passes

Search period start: 25 November 2020 00:00
Search period end: 05 December 2020 00:00
Orbit: 650 x 3833 km, 34.2° (Epoch: 25 November)

Date Brightness Start Highest point End Pass type
(mag) Time Alt. Az. Time Alt. Az. Time Alt. Az.
27 Nov 13.1 16:48:38 10° S 16:50:59 11° SSE 16:53:36 10° SE visible
28 Nov 13.1 17:08:04 10° S 17:11:04 12° SSE 17:14:33 10° SE visible
29 Nov 13.1 17:28:05 10° S 17:31:13 12° SSE 17:34:52 10° SSE visible
30 Nov 13.1 17:48:36 10° S 17:51:25 11° S 17:54:39 10° SSE visible
01 Dec 13.1 18:09:55 10° S 18:11:39 11° S 18:13:32 10° S visible
